Other Surface Observations
Issued by NWS Charleston, SC

Home | Current Version | Previous Version | Text Only | Print | Product List | Glossary On
Versions: 1 2 3 4 5 6 7 8 9 10 11 12 13 14 15 16 17 18 19 20 21 22 23 24 25 26 27 28 29 30 31 32 33 34 35 36 37 38 39 40 41 42 43 44 45 46 47 48 49 50
000
SXUS52 KCHS 031927
OSOCHS

MARINE OBSERVATIONS
NATIONAL WEATHER SERVICE CHARLESTON SC
300 PM EDT MON AUG 03 2015

...DOWNTOWN CHARLESTON AND HARBOR...

CITY           SKY/WX    TMP DP  RH WIND       PRES   REMARKS
WATERFRONT PRK   N/A     84  76  77 S9        29.91F HX  93

...LAKE MOULTRIE...

CITY           SKY/WX    TMP DP  RH WIND       PRES   REMARKS
PINOPOLIS      NOT AVBL

...LAKE AND SUPPLEMENTAL COASTAL OBSERVATIONS...

STATION/POSITION TIME  TEMP    WIND        PRES    WAVE   SWELL
                       AIR SEA DIR/SP/G            HT/PER HT/PER/DIR
                 (UTC) (F)     (DEG/KT/KT) (MB)    (FT/S) (FT/S/D)
FORT PULASKI     1900   83 85  140/  9/ 15 1012.8F
SAPELO ISLAND    1900   83     160/ 11     1011.0F
UPR LAKE MARION  NOT AVBL
WINYAH BAY       1845   86     200/ 11     1013.0S
LAKE MURRAY      1900   90     190/  6/  7 1011.5F
ACE BASIN NERRS  NOT AVBL


...C-MAN AND BUOY OBSERVATIONS...

STATION/POSITION TIME  TEMP    WIND        PRES    WAVE   SWELL
                       AIR SEA DIR/SP/G            HT/PER HT/PER/DIR
                 (UTC) (F)     (DEG/KT/KT) (MB)    (FT/S) (FT/S/D)
BUOY 41004       1850   84 83  190/ 12/ 14 1013.3F   5/ 7   5/ 7
BUOY 41008       1850   80 83  170/ 19/ 23 1011.6F   6/ 6   2/150/11
FOLLY BEACH CMAN 1900   83     190/  9/ 12 1013.6F
CAPERS NS BUOY   1808   83     200/ 10/ 14 1014.1F
FRIPP NS BUOY    1800   85     180/ 16/ 17 1012.8F
5E ST. MARYS GA  1821      82                N/A     4/ 6


STATION/POSITION TIME  TEMP    WIND        PRES    WAVE   SWELL
                       AIR SEA DIR/SP/G            HT/PER HT/PER/DIR
                 (UTC) (F)     (DEG/KT/KT) (MB)    (FT/S) (FT/S/D)
FRYING PAN BUOY  1850   80 82  190/  8/ 10 1015.0    5/ 7   5/190/ 7
BUOY 41025       1850   76 83  190/ 12/ 14 1016.2F   3/ 7   3/210/ 7
CAPE LOOKOUT NC  1900   74     220/  7/  9 1015.4F
BUOY 41002       1850   83 81  200/ 14/ 17 1017.3F   5/ 6   2/ 50/11
BUOY 41010       1820   84 84  200/ 17/ 21 1015.7F
ST AUGUSTINE FL  1900   76 79  200/ 17/ 20 1012.6F

$$



USA.gov is the U.S. government's official web portal to all federal, state and local government web resources and services.